Tracking 31027 objects as of 19-Jul-2025
HD Live streaming from Space Station
objects crossing your sky now

COSMOS 1375 DEB

Track COSMOS 1375 DEB now!
10-day predictions


NORAD ID: 16376
Int'l Code: 1982-055Q
Perigee: 893.2 km
Apogee: 936.5 km
Inclination: 65.8 °
Period: 103.2 minutes
Semi major axis: 7285 km
RCS: 0.0298 m2 (small)
Launch date: June 6, 1982
Source: Commonwealth of Independent States (former USSR) (CIS)
Launch site: PLESETSK MISSILE AND SPACE COMPLEX (PKMTR)

Note: This is SATELLITE DEBRIS
Your satellite tracking list
STARLINK-3315
Track 1 satellite(s)




NASA's NSSDC Master Catalog

Two Line Element Set (TLE):
1 16376U 82055Q   25199.64287032  .00000431  00000-0  37542-3 0  9993
2 16376  65.8269  79.8964 0029756 239.4359 146.7929 13.95993629 13365
Source of the keplerian elements: AFSPC